Terminal Aerodrome Forecast
Issued by NWS State College, PA

Home | Current Version | Previous Version | Text Only | Print | Product List | Glossary On
Versions: 1 2 3 4 5 6 7 8 9 10 11 12 13 14 15 16 17 18 19 20 21 22 23 24 25 26 27 28 29 30 31 32 33 34 35 36 37 38 39 40 41 42 43 44 45 46 47 48 49 50
149
FTUS41 KCTP 131148
TAFMDT
TAF
KMDT 131148Z 1312/1412 31016G26KT P6SM SCT040
     FM131400 31022G32KT P6SM SCT050
     FM132200 31015G25KT P6SM SKC
     FM140800 31012KT P6SM SKC=

USA.gov is the U.S. government's official web portal to all federal, state and local government web resources and services.